User: anonymous   Login
Location: Harbor Island
(32.3990°N, 80.4435°W)
Time: 01:53:11
(UTC-05:00)
Language:

Cosmos 1455 - Orbit

View from above orbital plane
View from above orbital plane
View from above satellite
View from above satellite

Ground track
Ground track

The orbit data is extracted from the following two-line orbital elements,

1 14032U 83037A   17015.84374226  .00000321  00000-0  14575-4 0  9993
2 14032  82.5153 237.6619 0019180  88.6551 271.6879 15.16756575838289
Epoch (UTC): 15 January 2017 20:14:59
Eccentricity: 0.0019180
inclination: 82.5153°
perigee height: 502 km
apogee height: 529 km
right ascension of ascending node: 237.6619°
argument of perigee: 88.6551°
revolutions per day: 15.16756575
mean anomaly at epoch: 271.6879°
orbit number at epoch: 83828

The dashed part of the orbit path shows where the satellite is in the earth's shadow,  

DLR